This demonstration page uses our WeatherBlox Daily Observations layout. Learn more.

Left ArrowRight Arrow

34.16533, -84.80231

Hourly Observations for August 26, 2019

Temp ( °F °C ) Dew Point ( °F °C ) Humidity (%) Winds ( mph kmh ) Pressure ( in mb ) Visibility ( mi km ) Precip ( " mm )
12:22 am 00:22 Cloudy 75 23.9 64 17.8 69 69 ESE 7 11 30.04 1017 10 16 0.00 0.00
12:53 am 00:53 Cloudy 75 23.9 64 17.8 69 69 VRB 6 9 30.02 1017 10 16 0.00 0.00
1:53 am 01:53 Cloudy 74 23.3 64 17.8 71 71 E 9 15 30.02 1017 10 16 0.00 0.00
2:53 am 02:53 Cloudy 73 22.8 64 17.8 74 74 ESE 9 15 30.00 1016 10 16 0.00 0.00
3:53 am 03:53 Mostly Cloudy 72 22.2 65 18.3 79 79 ESE 7 11 29.99 1016 10 16 0.00 0.00
4:53 am 04:53 Cloudy 72 22.2 65 18.3 79 79 ESE 8 13 29.99 1016 10 16 0.00 0.00
5:15 am 05:15 Cloudy 72 22.2 65 18.3 79 79 ESE 7 11 30.01 1016 10 16 0.00 0.00
5:53 am 05:53 Cloudy 71 21.7 65 18.3 81 81 ESE 9 15 30.01 1016 10 16 0.00 0.00
6:06 am 06:06 Cloudy 72 22.2 65 18.3 79 79 VRB 6 9 30.02 1016 10 16 0.00 0.00
6:28 am 06:28 Cloudy 71 21.7 65 18.3 81 81 ESE 7 11 30.02 1017 10 16 0.00 0.00
6:53 am 06:53 Cloudy 71 21.7 65 18.3 81 81 ESE 7 11 30.01 1016 10 16 0.00 0.00
7:23 am 07:23 Cloudy 71 21.7 65 18.3 81 81 ESE 9 15 30.03 1017 10 16 0.00 0.00
7:53 am 07:53 Cloudy 71 21.7 63 17.2 76 76 VRB 7 11 30.02 1017 10 16 0.00 0.00
8:53 am 08:53 Mostly Cloudy 69 20.6 64 17.8 84 84 VRB 5 7 30.02 1017 10 16 0.00 0.00
9:53 am 09:53 Cloudy 71 21.7 62 16.7 73 73 E 9 15 30.03 1017 10 16 0.00 0.00
10:53 am 10:53 Mostly Cloudy 73 22.8 62 16.7 69 69 ESE 12 19 30.03 1017 10 16 0.00 0.00
11:53 am 11:53 Cloudy 76 24.4 63 17.2 64 64 ESE 9 15 30.02 1017 10 16 0.00 0.00
12:53 pm 12:53 Cloudy with Light Rain 73 22.8 65 18.3 76 76 VRB 5 7 30.01 1016 9 14 0.02 0.51
1:53 pm 13:53 Cloudy 76 24.4 68 20 77 77 ESE 6 9 30.00 1016 10 16 0.01 0.25
2:53 pm 14:53 Mostly Cloudy 79 26.1 67 19.4 67 67 SE 13 20 29.98 1015 10 16 0.00 0.00
3:53 pm 15:53 Cloudy with Light Rain 74 23.3 68 20 82 82 ESE 6 9 29.97 1015 2 3 0.05 1.27
4:04 pm 16:04 Cloudy with Light Rain 74 23.3 70 21.1 88 88 ESE 3 6 29.97 1015 7 11 0.01 0.25
4:53 pm 16:53 Cloudy 75 23.9 70 21.1 84 84 VRB 5 7 29.95 1014 10 16 0.01 0.25
5:53 pm 17:53 Cloudy with Light Rain 74 23.3 70 21.1 88 88 ESE 3 6 29.95 1014 8 13 0.01 0.25
6:24 pm 18:24 Cloudy with Light Rain 74 23.3 70 21.1 88 88 Calm 29.96 1015 6 10 0.00 0.00
6:39 pm 18:39 Cloudy 74 23.3 70 21.1 88 88 Calm 29.96 1015 10 16 0.00 0.00
6:53 pm 18:53 Cloudy 74 23.3 71 21.7 91 91 E 3 6 29.96 1014 10 16 0.00 0.00
7:53 pm 19:53 Cloudy with Light Rain 73 22.8 70 21.1 90 90 ESE 3 6 29.95 1014 3 5 0.03 0.76
8:53 pm 20:53 Cloudy with Light Rain 72 22.2 69 20.6 91 91 VRB 3 6 29.96 1015 6 10 0.07 1.78
9:53 pm 21:53 Cloudy 72 22.2 69 20.6 91 91 VRB 5 7 29.97 1015 10 16 0.07 1.78
10:53 pm 22:53 Cloudy with Light Rain 72 22.2 69 20.6 91 91 E 6 9 29.98 1015 4 6 0.07 1.78
11:31 pm 23:31 Cloudy with Light Rain 72 22.2 69 20.6 91 91 E 5 7 29.99 1015 8 13 0.04 1.02
11:49 pm 23:49 Cloudy with Light Rain 72 22 70 21 94 94 Calm 30.00 1016 8 13 0.05 1.27

Powered by AerisWeather